Skip Page Navigation
NASA JPL Caltech
NASA Logo - Jet Propulsion Laboratory + View the NASA Portal
+ Center for Near-Earth Object Studies
JPL Home Earth Solar System Stars & Galaxies Technology
JPL Solar System Dynamics
BODIES ORBITS EPHEMERIDES TOOLS PHYSICAL DATA DISCOVERY FAQ SITE MAP
IMPORTANT: The SSD Announcement email list is now available. Major changes are coming in the near future, including possible hostname and/or URL changes. To be notified of such changes, subscribe to this email list.

Please visit this page for more details.


JPL Small-Body Database Browser
Search: [ help ]  
590 Tomyris (A906 ED)
Classification: Main-belt Asteroid          SPK-ID: 2000590
Ephemeris | Orbit Diagram | Orbital Elements | Mission Design | Physical Parameters | Discovery Circumstances | Close-Approach Data ]

[ show orbit diagram ]
Orbital Elements at Epoch 2459000.5 (2020-May-31.0) TDB
Reference: JPL 39 (heliocentric ecliptic J2000)
 Element Value Uncertainty (1-sigma)   Units 
e .08022375807768556 3.478e-08  
a 2.998857790331871 1.2588e-08 au
q 2.758278148450904 1.0575e-07 au
i 11.17352446660433 4.0818e-06 deg
node 106.1434661894923 2.1861e-05 deg
peri 339.074755865441 3.6104e-05 deg
M 72.91934919342863 2.7854e-05 deg
tp 2458616.286591375191
(2019-May-12.78659138)
0.00014678 TDB
period 1896.846703033879
5.19
1.1943e-05
3.27e-08
d
yr
n .1897886631661927 1.195e-09 deg/d
Q 3.239437432212838 1.3598e-08 au
  Orbit Determination Parameters
   # obs. used (total)      2578  
   data-arc span      41694 days (114.15 yr)  
   first obs. used      1906-03-05  
   last obs. used      2020-04-29  
   planetary ephem.      DE431  
   SB-pert. ephem.      SB431-N16  
   condition code      0  
   norm. resid. RMS      .43821  
   source      ORB  
   producer      Otto Matic  
   solution date      2020-May-20 01:08:58  

Additional Information
 Earth MOID = 1.77774 au 
 Jupiter MOID = 1.93644 au 
 T_jup = 3.220 
[ hide covariance matrix ]
Orbital Elements at Epoch 2456465.5 (2013-Jun-22.0) TDB
Reference: JPL 39 (heliocentric ecliptic J2000)
 Element Value Uncertainty (1-sigma)   Units 
e .07913349796807775 3.5124e-08  
q 2.760862790875076 1.0669e-07 au
tp 2456730.560314841218
(2014-Mar-14.06031484)
0.00014817 TDB
node 106.2008945544672 2.1833e-05 deg
peri 341.3633946475794 3.617e-05 deg
i 11.18056152952452 4.0839e-06 deg
  Orbit Determination Parameters
   # obs. used (total)      2578  
   data-arc span      41694 days (114.15 yr)  
   first obs. used      1906-03-05  
   last obs. used      2020-04-29  
   planetary ephem.      DE431  
   SB-pert. ephem.      SB431-N16  
   condition code      0  
   norm. resid. RMS      .43821  
   source      ORB  
   producer      Otto Matic  
   solution date      2020-May-20 01:08:58  

Additional Information
 Jupiter MOID = 1.93644 au 
 T_jup = 3.220 
Orbit Covariance (6×6)
  e q tp node peri i
e 1.233725706449938E-15 -3.725369098167696E-15 2.746261171144144E-13 -2.427821410986824E-15 3.865601567278065E-14 -1.569923283008714E-15
q -3.725369098167696E-15 1.13821502132441E-14 -1.058339398783258E-12 8.610811113784516E-15 -1.680713604656689E-13 5.188659348144435E-15
tp 2.746261171144144E-13 -1.058339398783258E-12 2.195521413828474E-8 9.808058526156033E-12 4.297176671257468E-9 -3.631828802513877E-12
node -2.427821410986824E-15 8.610811113784516E-15 9.808058526156033E-12 4.766729585483796E-10 -4.652119094167667E-10 9.261677152941158E-12
peri 3.865601567278065E-14 -1.680713604656689E-13 4.297176671257468E-9 -4.652119094167667E-10 1.308301969074224E-9 -9.788814653540016E-12
i -1.569923283008714E-15 5.188659348144435E-15 -3.631828802513877E-12 9.261677152941158E-12 -9.788814653540016E-12 1.667814739942294E-11

Ephemeris | Orbit Diagram | Orbital Elements | Mission Design | Physical Parameters | Discovery Circumstances | Close-Approach Data ]

Physical Parameter Table
Parameter Symbol Value Units Sigma Reference Notes
absolute magnitude H 10.0   n/a MPO502158 IRAS observations used: 8
diameter diameter 30.577 km 0.200 urn:nasa:pds:neowise_diameters_albedos::2.0[mainbelt] (http://adsabs.harvard.edu/abs/2014ApJ...791..121M)  
rotation period rot_per 5.562 h n/a LCDB (Rev. 2019-August); Warner et al., 2009 Published Reference List:
[Binzel, R.P. (1987) Icarus 72, 135-208.]
[Addleman, D.; Covele, B.; Duncan, A.; Johnson, J.; et al. (2005) Minor Planet Bull. 32, 76-78.]
[Hanus, J.; Durech, J.; Broz, M.; Warner, B.D.; et al. (2011) Astron. Astrophys. 530, A134.]
[Waszczak, A.; Chang, C.-K.; Ofeck, E.O.; Laher, F.; et al. (2015) Astron. J. 150, A75.]
[Hanus, J.; Delbo, M.; Ali-Lagoa, V.; Bolin, B.; et al. (2016) Astron. Astrophys., submitted.]
[Hanus, J.; Delbo, M.; Ali-Lagoa, V.; Bolin, B.; et al. (2018) Icarus 299, 84-96.]
geometric albedo albedo 0.187   0.040 urn:nasa:pds:neowise_diameters_albedos::2.0[mainbelt] (http://adsabs.harvard.edu/abs/2014ApJ...791..121M)  
B-V BV 0.817   0.022 EAR-A-5-DDR-UBV-MEAN-VALUES-V1.2 #obs=4; phase (min.=11.80, mean=13.49, max.=17.67) deg.
U-B UB 0.410   0.022 EAR-A-5-DDR-UBV-MEAN-VALUES-V1.2 #obs=4; phase (min.=11.80, mean=13.49, max.=17.67) deg.

590 Tomyris (A906 ED)          Discovered 1906-Mar-04 by Wolf, M. at Heidelberg
Reference: DISCOVERY.DBLast Updated: 2003-08-29

[ show close-approach data ]
Alternate Designations
 A906 ED = 1954 ME = 1955 SJ 
Ephemeris | Orbit Diagram | Orbital Elements | Mission Design | Physical Parameters | Discovery Circumstances | Close-Approach Data ]
ABOUT SSD CREDITS/AWARDS PRIVACY/COPYRIGHT GLOSSARY LINKS
FirstGov 2020-Jun-05 16:28 UT
(server date/time)  
NASA Home Page
Site Manager:   Ryan S. Park
Webmaster  Alan B. Chamberlin